Find Starlink 5989

NORAD ID: 56781 Int'l Des: 2023-078 Owner: SPXS Country: US Constellation: starlink operational
LEOCIRCULAR

实时位置

正在加载3D地球...

关于 Starlink 5989

正在加载描述...

即将过境

Passes for default location (London). Set your location on the main map for personalized predictions.

高度历史

Loading altitude history...

两行轨道根数

1 56781U 23078Q 26124.53630928 -.00000539 00000-0 -37378-4 0 9999
2 56781 70.0014 203.7183 0002748 259.2989 100.7860 14.98332308161045
Epoch: May 4, 2026 • Age: 15 hours

当前状态

高度 577.6 km
速度 7.58 km/s
星下点 37.72°N, 84.16°E
发射日期 May 31, 2023
运行时间 2.9 years
类型 internet

技术详情

分类 Payload
质量 305.00 kg
干质量 290.00 kg
总质量 305.00 kg
长度 0.20 m
直径 2.80 m
跨度 9.00 m
形状 Box + pan
制造商 SPXS
平台类型 Starlink
阶段状态 In Orbit
所有者/国家 SPXS/US

Most Searched